User: anonymous   Login
Location: Herm
(49.4830°N, 2.4500°W)
Time: 13:46:56
(UTC+01:00)
Language:

PicSat - Orbit

View from above orbital plane
View from above orbital plane
View from above satellite
View from above satellite

Ground track
Ground track

The orbit data is extracted from the following two-line orbital elements,

1 43131U 18004W   21295.76667521  .00005187  00000-0  18944-3 0  9994
2 43131  97.4019  10.8975 0009641 110.3241 249.9035 15.28515829210209
Epoch (UTC): 22 October 2021 18:24:00
Eccentricity: 0.0009641
inclination: 97.4019°
perigee height: 473 km
apogee height: 487 km
right ascension of ascending node: 10.8975°
argument of perigee: 110.3241°
revolutions per day: 15.28515829
mean anomaly at epoch: 249.9035°
orbit number at epoch: 21020

The dashed part of the orbit path shows where the satellite is in the earth's shadow,  

DLR